Flag for Germany Weather past 2 weeks in Garmisch-Partenkirchen, Bavaria, Germany

Now
84 °F

Passing clouds.


Feels Like: 85 °F
Forecast: 60 / 88 °F
Wind: 10 mph from Northeast

Location: Innsbruck-Flughafen

Current Time: Jul 1, 2015 at 8:01:28 PM

Latest Report: Jul 1, 2015 at 7:20 PM


Visibility: N/A

Pressure: 30.07 "Hg

Humidity: 48%

Dew point: 63 °F

Location of Garmisch-PartenkirchenLocation

Historic Weather in Garmisch-Partenkirchen — Graph

°F

Garmisch-Partenkirchen temperature yesterday

Maximum temperature yesterday: 84 °F (at 2:50 PM)
Minimum temperature yesterday: 55 °F (at 4:50 AM)
Average temperature yesterday: 69 °F

Past Weeks' High & Low Weather Summary

 TemperatureHumidityPressure
High90 °F (Jul 1, 4:20 PM)100% (Jun 17, 12:20 AM)30.27 "Hg (Jun 17, 12:20 AM)
Low48 °F (Jun 21, 4:20 AM)29% (Jul 1, 4:50 PM)29.77 "Hg (Jun 23, 12:50 AM)
Average62 °F71%30.11 "Hg
* Reported Jun 16 6:20 PM — Jul 1 6:50 PM, Garmisch-Partenkirchen, Weather by CustomWeather, © 2015

Note: Actual official high and low records may vary slightly from our data, if they occured in-between our weather recording intervals... More about our weather records

Advertising

Garmisch-Partenkirchen weather history for previous 24 hours

 ConditionsComfort  
Time TempWeatherWind HumidityBarometerVisibility
6:50 PM
Wed, Jul 1
86 °FPassing clouds.13 mph40%30.07 "HgN/A
6:20 PM88 °FPassing clouds.12 mph38%30.07 "HgN/A
5:50 PM86 °FPassing clouds.15 mph40%30.07 "HgN/A
5:20 PM88 °FPassing clouds.13 mph35%30.07 "HgN/A
4:50 PM90 °FPassing clouds.12 mph29%30.07 "HgN/A
4:20 PM90 °FPassing clouds.8 mph33%30.07 "HgN/A
3:50 PM88 °FPassing clouds.8 mph38%30.07 "HgN/A
3:20 PM88 °FPassing clouds.6 mph38%30.07 "HgN/A
2:50 PM88 °FPassing clouds.7 mph35%30.09 "HgN/A
2:20 PM86 °FPassing clouds.9 mph40%30.09 "HgN/A
1:50 PM84 °FPassing clouds.8 mph40%30.09 "HgN/A
1:20 PM84 °FPassing clouds.7 mph48%30.12 "HgN/A
12:50 PM82 °FPassing clouds.5 mph45%30.12 "HgN/A
12:20 PM81 °FPassing clouds.6 mph51%30.12 "HgN/A
11:50 AM81 °FSunny.2 mph45%30.15 "Hg10 mi
11:20 AM79 °FSunny.1 mph45%30.15 "Hg10 mi
10:50 AM77 °FSunny.1 mph51%30.15 "Hg10 mi
10:20 AM75 °FSunny.2 mph54%30.15 "Hg10 mi
9:50 AM72 °FPassing clouds.6 mph61%30.18 "HgN/A
9:20 AM70 °FSunny.8 mph69%30.18 "Hg10 mi
8:50 AM68 °FPassing clouds.5 mph69%30.18 "HgN/A
8:20 AM64 °FSunny.6 mph78%30.18 "Hg10 mi
7:50 AM63 °FSunny.6 mph77%30.21 "Hg10 mi
7:20 AM61 °FPassing clouds.5 mph83%30.21 "HgN/A
6:50 AM61 °FSunny.3 mph83%30.21 "Hg10 mi
6:20 AM59 °FClear.3 mph82%30.21 "Hg10 mi
5:50 AM57 °FClear.2 mph88%30.21 "Hg10 mi
5:20 AM57 °FCool.2 mph88%30.18 "HgN/A
4:50 AM57 °FCool.1 mph88%30.18 "HgN/A
4:20 AM59 °FCool.2 mph82%30.18 "HgN/A
3:50 AM59 °FCool.2 mph88%30.18 "HgN/A
3:20 AM59 °FCool.2 mph88%30.18 "HgN/A
2:50 AM61 °FCool.1 mph83%30.18 "HgN/A
2:20 AM61 °FCool.5 mph83%30.18 "HgN/A
1:50 AM63 °FMild.1 mph77%30.18 "HgN/A
1:20 AM63 °FMild.2 mph77%30.18 "HgN/A
12:50 AM64 °FMild.1 mph73%30.18 "HgN/A
12:20 AM64 °FMild.No wind73%30.18 "HgN/A
11:50 PM
Tue, Jun 30
66 °FMild.1 mph68%30.18 "HgN/A
11:20 PM66 °FMild.1 mph73%30.15 "HgN/A
10:50 PM68 °FClear.1 mph69%30.15 "Hg10 mi
10:20 PM70 °FClear.2 mph64%30.15 "Hg10 mi
9:50 PM70 °FPassing clouds.3 mph64%30.15 "HgN/A
9:20 PM73 °FSunny.1 mph61%30.12 "Hg10 mi
8:50 PM75 °FSunny.2 mph50%30.09 "Hg10 mi
8:20 PM77 °FPassing clouds.3 mph47%30.09 "HgN/A
Weather by CustomWeather, © 2015

See weather overviewHow to use our weather pages